GW3762 Weather Reports


Display with metric or nautical units.
time (UTC)temp
F
wind
direction
speed
MPH
gust
MPH
rain 1hr
in
rain 24hr
in
rain mn
in
humidity
%
barometer
mb
20260906055958 59 69 0.0 0.0 0.00 0.29 0.00 94 1013.6
20260906055458 59 69 0.0 0.0 0.00 0.29 0.00 94 1013.6
20260906054957 59 69 0.0 0.0 0.00 0.29 0.00 94 1013.7
20260906054458 59 69 0.0 0.0 0.00 0.29 0.00 94 1013.6
20260906053957 59 69 0.0 1.0 0.00 0.29 0.00 94 1013.6
20260906052958 59 69 2.0 9.0 0.00 0.29 0.00 94 1013.6
20260906052457 59 65 1.0 9.0 0.00 0.29 0.00 94 1013.6
20260906051957 59 42 1.0 4.0 0.00 0.29 0.00 94 1013.6
20260906051457 59 55 2.0 4.0 0.00 0.29 0.00 94 1013.6
20260906050458 59 55 3.0 9.0 0.00 0.29 0.00 94 1013.7
20260906050002 59 58 1.0 9.0 0.00 0.29 0.00 94 1013.7
20260906045501 59 80 4.0 6.0 0.00 0.29 0.00 94 1013.7
20260906045001 59 40 4.0 6.0 0.00 0.29 0.00 94 1013.8
20260906044500 59 68 6.0 6.0 0.00 0.29 0.00 94 1013.8
20260906044001 59 53 3.0 5.0 0.00 0.29 0.00 94 1013.8
20260906043501 60 54 2.0 9.0 0.00 0.29 0.00 94 1013.8
20260906043000 60 73 2.0 12.0 0.00 0.29 0.00 94 1013.7
20260906042500 61 57 5.0 12.0 0.00 0.29 0.00 94 1013.5
20260906042001 62 45 6.0 10.0 0.00 0.29 0.00 94 1013.5
20260906041501 63 73 2.0 4.0 0.00 0.29 0.00 94 1013.4
20260906041000 63 67 0.0 0.0 0.00 0.29 0.00 94 1013.4
20260906040500 63 67 0.0 0.0 0.00 0.29 0.00 94 1013.4
20260906040004 63 67 0.0 0.0 0.00 0.29 0.00 95 1013.3
20260906035000 62 67 0.0 0.0 0.00 0.29 0.29 94 1013.3
20260906034000 62 67 0.0 0.0 0.00 0.29 0.29 94 1013.3
20260906033501 62 67 0.0 0.0 0.00 0.29 0.29 94 1013.2
20260906033000 62 67 0.0 0.0 0.00 0.29 0.29 94 1013.1
20260906032501 62 67 0.0 0.0 0.00 0.29 0.29 94 1013.2
20260906032001 62 67 0.0 0.0 0.00 0.29 0.29 94 1013.1
20260906031001 62 67 0.0 1.0 0.00 0.29 0.29 94 1012.9
20260906030500 62 67 1.0 1.0 0.01 0.29 0.29 94 1013.0
20260906030004 62 67 0.0 0.0 0.01 0.29 0.29 94 1013.1
20260906025500 62 67 0.0 2.0 0.01 0.29 0.29 94 1013.2
20260906025000 62 67 0.0 4.0 0.03 0.29 0.29 93 1013.2
20260906024500 63 68 0.0 4.0 0.05 0.29 0.29 93 1013.2
20260906024001 63 82 1.0 3.0 0.10 0.29 0.29 93 1013.0
20260906023500 63 82 1.0 3.0 0.29 0.29 0.29 93 1013.0
20260906022501 63 51 4.0 4.0 0.29 0.29 0.29 93 1013.1
20260906022000 63 47 3.0 5.0 0.29 0.29 0.29 93 1013.1
20260906021501 63 53 1.0 5.0 0.29 0.29 0.29 93 1013.1
20260906021001 63 63 3.0 4.0 0.29 0.29 0.29 93 1013.0
20260906020500 64 52 2.0 7.0 0.28 0.28 0.28 93 1013.0
20260906020000 64 54 1.0 7.0 0.28 0.28 0.28 93 1013.0
20260906015459 64 42 2.0 6.0 0.28 0.28 0.28 93 1013.0
20260906013959 64 65 1.0 6.0 0.17 0.17 0.17 93 1013.0
20260906013459 64 43 5.0 5.0 0.00 0.00 0.00 92 1012.8
20260906012959 65 72 2.0 2.0 0.00 0.00 0.00 92 1012.7
20260906012459 64 72 0.0 1.0 0.00 0.00 0.00 92 1012.7
20260906011959 64 72 0.0 3.0 0.00 0.00 0.00 92 1012.8
20260906011500 64 72 0.0 3.0 0.00 0.00 0.00 92 1012.7
20260906010959 64 72 0.0 0.0 0.00 0.00 0.00 91 1012.7
20260906010501 65 72 0.0 0.0 0.00 0.00 0.00 91 1012.5
20260906010003 65 72 0.0 0.0 0.00 0.00 0.00 91 1012.5
20260906005501 65 72 0.0 0.0 0.00 0.00 0.00 90 1012.4
20260906005000 65 72 0.0 0.0 0.00 0.00 0.00 90 1012.5
20260906003000 66 72 2.0 3.0 0.00 0.00 0.00 86 1012.4
20260906002500 67 72 2.0 4.0 0.00 0.00 0.00 86 1012.2
20260906001959 67 62 1.0 4.0 0.00 0.00 0.00 85 1012.0
20260906001459 67 44 2.0 6.0 0.00 0.00 0.00 84 1012.0
20260906001001 67 39 4.0 6.0 0.00 0.00 0.00 83 1011.9
20260906000500 67 65 4.0 7.0 0.00 0.00 0.00 83 1011.9
20260905235959 67 53 2.0 4.0 0.00 0.00 0.00 82 1011.9
20260905235459 68 81 2.0 5.0 0.00 0.00 0.00 82 1011.9
20260905234959 68 67 3.0 7.0 0.00 0.00 0.00 82 1011.9
20260905234459 68 71 3.0 7.0 0.00 0.00 0.00 82 1011.8
20260905232959 68 66 4.0 5.0 0.00 0.00 0.00 82 1011.6
20260905232459 68 68 3.0 5.0 0.00 0.00 0.00 82 1011.7
20260905231959 69 82 5.0 5.0 0.00 0.00 0.00 82 1011.5
20260905230959 69 78 3.0 4.0 0.00 0.00 0.00 81 1011.5
20260905230459 69 68 3.0 5.0 0.00 0.00 0.00 80 1011.4
20260905230002 69 78 4.0 5.0 0.00 0.00 0.00 79 1011.4
20260905225459 69 57 0.0 3.0 0.00 0.00 0.00 80 1011.3
20260905225000 70 57 0.0 1.0 0.00 0.00 0.00 80 1011.3
20260905224501 70 57 0.0 4.0 0.00 0.00 0.00 80 1011.3
20260905223959 70 57 2.0 4.0 0.00 0.00 0.00 79 1011.3
20260905223459 70 69 3.0 3.0 0.00 0.00 0.00 80 1011.4
20260905223000 70 65 2.0 3.0 0.00 0.00 0.00 81 1011.4
20260905222500 70 65 2.0 3.0 0.00 0.00 0.00 81 1011.4
20260905222000 70 65 0.0 3.0 0.00 0.00 0.00 80 1011.2
20260905221500 70 65 0.0 3.0 0.00 0.00 0.00 81 1011.2
20260905221001 70 73 1.0 3.0 0.00 0.00 0.00 81 1011.2
20260905220459 70 73 0.0 3.0 0.00 0.00 0.00 80 1011.1
20260905220001 70 73 2.0 2.0 0.00 0.00 0.00 81 1011.2
20260905215458 70 283 0.0 2.0 0.00 0.00 0.00 81 1011.2
20260905213959 70 283 0.0 1.0 0.00 0.00 0.00 82 1011.0
20260905213459 70 283 0.0 1.0 0.00 0.00 0.00 80 1010.9
20260905212959 70 283 0.0 1.0 0.00 0.00 0.00 82 1010.9
20260905212459 70 283 0.0 2.0 0.00 0.00 0.00 81 1010.9
20260905211959 71 283 1.0 2.0 0.00 0.00 0.00 81 1010.9
20260905211459 71 283 0.0 3.0 0.00 0.00 0.00 79 1010.9
20260905210959 71 283 2.0 3.0 0.00 0.00 0.00 78 1010.8
20260905210459 71 96 1.0 2.0 0.00 0.00 0.00 79 1010.6
20260905205459 72 308 0.0 2.0 0.00 0.00 0.00 76 1010.6
20260905204958 72 99 0.0 2.0 0.00 0.00 0.00 76 1010.5
20260905203959 72 103 0.0 6.0 0.00 0.00 0.00 71 1010.4
20260905203459 72 101 0.0 6.0 0.00 0.00 0.00 73 1010.4
20260905203000 72 63 1.0 3.0 0.00 0.00 0.00 73 1010.5
20260905202506 72 63 0.0 5.0 0.00 0.00 0.00 72 1010.5
20260905201458 72 59 1.0 4.0 0.00 0.00 0.00 74 1010.6
20260905200959 72 54 3.0 5.0 0.00 0.00 0.00 73 1010.6
20260905200004 72 348 1.0 3.0 0.00 0.00 0.00 75 1010.5
20260905195459 73 81 0.0 3.0 0.00 0.00 0.00 76 1010.5
20260905194500 72 59 1.0 7.0 0.00 0.00 0.00 71 1010.5
20260905194000 73 76 3.0 9.0 0.00 0.00 0.00 71 1010.5
20260905193500 73 70 0.0 9.0 0.00 0.00 0.00 74 1010.4
20260905193001 73 96 6.0 9.0 0.00 0.00 0.00 74 1010.5
20260905192459 73 82 0.0 3.0 0.00 0.00 0.00 73 1010.5
20260905192000 73 76 0.0 2.0 0.00 0.00 0.00 73 1010.4
20260905191500 73 360 1.0 6.0 0.00 0.00 0.00 73 1010.5
20260905191000 73 355 1.0 8.0 0.00 0.00 0.00 72 1010.6
20260905185959 72 35 3.0 8.0 0.00 0.00 0.00 72 1010.6
20260905185500 72 61 3.0 8.0 0.00 0.00 0.00 72 1010.6
20260905184959 71 89 4.0 5.0 0.00 0.00 0.00 76 1010.6
20260905184459 70 76 2.0 5.0 0.00 0.00 0.00 76 1010.6
20260905183959 70 82 3.0 6.0 0.00 0.00 0.00 77 1010.7
20260905183459 70 69 3.0 6.0 0.00 0.00 0.00 77 1010.8
20260905182459 71 101 6.0 10.0 0.00 0.00 0.00 75 1010.7
20260905182000 72 102 6.0 10.0 0.00 0.00 0.00 73 1010.8
20260905181001 74 83 4.0 7.0 0.00 0.00 0.00 71 1010.7
20260905180459 74 42 3.0 9.0 0.00 0.00 0.00 73 1010.8
20260905175958 72 46 2.0 9.0 0.00 0.00 0.00 72 1010.9
20260905175458 73 59 4.0 9.0 0.00 0.00 0.00 73 1010.9
20260905174959 73 90 1.0 5.0 0.00 0.00 0.00 73 1010.9
20260905174502 73 71 3.0 5.0 0.00 0.00 0.00 72 1010.9
20260905173959 73 70 0.0 10.0 0.00 0.00 0.00 75 1010.8
20260905172959 73 45 5.0 8.0 0.00 0.00 0.00 73 1010.8
20260905172459 74 61 0.0 5.0 0.00 0.00 0.00 73 1010.8
20260905171459 73 62 0.0 6.0 0.00 0.00 0.00 76 1010.9
20260905170959 73 33 1.0 9.0 0.00 0.00 0.00 71 1010.8
20260905170458 74 49 5.0 9.0 0.00 0.00 0.00 69 1010.9
20260905170002 74 38 5.0 8.0 0.00 0.00 0.00 71 1010.8
20260905165459 73 85 5.0 10.0 0.00 0.00 0.00 72 1010.8
20260905165000 73 57 9.0 10.0 0.00 0.00 0.00 73 1010.8
20260905164500 73 11 4.0 10.0 0.00 0.00 0.00 72 1010.7
20260905163959 72 83 7.0 10.0 0.00 0.00 0.00 73 1010.8
20260905163459 73 42 4.0 9.0 0.00 0.00 0.00 70 1010.9
20260905162958 74 69 6.0 9.0 0.00 0.00 0.00 68 1010.7
20260905162459 75 76 4.0 6.0 0.00 0.00 0.00 67 1010.6
20260905161959 74 51 1.0 9.0 0.00 0.00 0.00 72 1010.7
20260905160959 73 82 3.0 8.0 0.00 0.00 0.00 68 1010.8
20260905160001 75 101 6.0 9.0 0.00 0.00 0.00 66 1010.7
20260905155500 74 59 2.0 6.0 0.00 0.00 0.00 69 1010.7
20260905154959 74 109 1.0 6.0 0.00 0.00 0.00 69 1010.8
20260905154459 73 44 4.0 10.0 0.00 0.00 0.00 69 1010.8
20260905153959 73 64 4.0 10.0 0.00 0.00 0.00 70 1010.9
20260905153003 73 74 2.0 5.0 0.00 0.00 0.00 71 1010.9
20260905152458 73 27 1.0 6.0 0.00 0.00 0.00 74 1010.9
20260905151500 72 81 3.0 13.0 0.00 0.00 0.00 71 1010.9
20260905151000 71 73 3.0 10.0 0.00 0.00 0.00 73 1010.9
20260905150458 71 44 3.0 9.0 0.00 0.00 0.00 74 1011.0
20260905150003 71 360 1.0 4.0 0.00 0.00 0.00 79 1011.0
20260905145458 71 302 1.0 4.0 0.00 0.00 0.00 79 1011.0
20260905144957 71 26 0.0 6.0 0.00 0.00 0.00 80 1010.9
20260905144458 70 26 2.0 6.0 0.00 0.00 0.00 79 1011.0
20260905143957 70 87 1.0 8.0 0.00 0.00 0.00 79 1010.8
20260905143458 70 227 1.0 8.0 0.00 0.00 0.00 81 1010.7
20260905142958 69 266 0.0 5.0 0.00 0.00 0.00 81 1010.6
20260905142458 69 36 3.0 6.0 0.00 0.00 0.00 82 1010.7
20260905141958 68 293 3.0 6.0 0.00 0.00 0.00 83 1010.6
20260905140958 67 276 0.0 3.0 0.00 0.00 0.00 85 1010.8
20260905140458 67 269 0.0 5.0 0.00 0.00 0.00 85 1010.8
20260905140002 67 273 1.0 5.0 0.00 0.00 0.00 83 1010.9
20260905135459 67 334 0.0 4.0 0.00 0.00 0.00 85 1010.9
20260905134959 67 290 1.0 3.0 0.00 0.00 0.00 85 1011.0
20260905134458 67 282 0.0 3.0 0.00 0.00 0.00 85 1011.1
20260905133458 67 282 1.0 5.0 0.00 0.00 0.00 84 1011.0
20260905132959 67 280 1.0 5.0 0.00 0.00 0.00 82 1011.1
20260905132459 67 57 0.0 5.0 0.00 0.00 0.00 85 1011.1
20260905131459 67 294 1.0 8.0 0.00 0.00 0.00 83 1011.1
20260905130459 67 48 1.0 7.0 0.00 0.00 0.00 84 1011.1
20260905130000 67 79 2.0 4.0 0.00 0.00 0.00 84 1011.1
20260905124958 66 55 2.0 7.0 0.00 0.00 0.00 85 1011.2
20260905124459 66 65 0.0 7.0 0.00 0.00 0.00 85 1011.3
20260905123459 65 284 0.0 4.0 0.00 0.00 0.00 88 1011.4
20260905123000 64 77 0.0 4.0 0.00 0.00 0.00 88 1011.4
20260905122458 64 309 0.0 2.0 0.00 0.00 0.00 88 1011.3
20260905121958 63 131 1.0 2.0 0.00 0.00 0.00 89 1011.3
20260905121458 63 304 0.0 0.0 0.00 0.00 0.00 90 1011.3
20260905120459 62 339 0.0 0.0 0.00 0.00 0.00 91 1011.2
20260905120000 62 331 0.0 0.0 0.00 0.00 0.00 91 1011.1
20260905115458 62 331 0.0 0.0 0.00 0.00 0.00 91 1011.2
20260905114959 62 331 0.0 0.0 0.00 0.00 0.00 91 1011.1
20260905114459 62 49 0.0 0.0 0.00 0.00 0.00 90 1011.0
20260905113958 62 59 0.0 0.0 0.00 0.00 0.00 89 1010.9
20260905113459 62 40 0.0 0.0 0.00 0.00 0.00 88 1010.9
20260905112959 62 40 0.0 1.0 0.00 0.00 0.00 88 1010.9
20260905112458 63 38 0.0 3.0 0.00 0.00 0.00 88 1010.9
20260905111959 63 35 2.0 4.0 0.00 0.00 0.00 88 1010.9
20260905110959 62 57 2.0 5.0 0.00 0.00 0.00 89 1010.6
20260905110459 62 76 2.0 4.0 0.00 0.00 0.00 90 1010.6
20260905110000 61 58 3.0 4.0 0.00 0.00 0.00 90 1010.5
20260905104958 61 79 2.0 4.0 0.00 0.00 0.00 92 1010.5
20260905104457 60 46 2.0 4.0 0.00 0.00 0.00 92 1010.4
20260905103958 60 47 1.0 3.0 0.00 0.00 0.00 92 1010.4
20260905103500 60 48 1.0 3.0 0.00 0.00 0.00 92 1010.4
20260905102958 59 20 1.0 2.0 0.00 0.00 0.00 92 1010.4
20260905101958 60 218 0.0 0.0 0.00 0.00 0.00 92 1010.1
20260905101458 60 218 0.0 0.0 0.00 0.00 0.00 92 1010.2
20260905100957 60 218 0.0 0.0 0.00 0.00 0.00 92 1010.1
20260905100457 60 218 0.0 0.0 0.00 0.00 0.00 92 1010.1
20260905095958 60 218 0.0 0.0 0.00 0.00 0.00 92 1010.1
20260905095457 60 218 0.0 0.0 0.00 0.00 0.00 92 1010.1
20260905094958 60 218 0.0 0.0 0.00 0.00 0.00 92 1010.1
20260905094458 60 218 0.0 0.0 0.00 0.00 0.00 92 1010.0
20260905093958 60 218 0.0 0.0 0.00 0.00 0.00 92 1010.0
20260905092958 60 218 0.0 0.0 0.00 0.00 0.00 92 1009.9
20260905092458 60 216 0.0 0.0 0.00 0.00 0.00 92 1009.9
20260905091957 60 216 0.0 0.0 0.00 0.00 0.00 92 1009.9
20260905091458 60 216 0.0 0.0 0.00 0.00 0.00 92 1009.9
20260905090458 61 219 0.0 0.0 0.00 0.00 0.00 92 1009.9
20260905090000 61 219 0.0 0.0 0.00 0.00 0.00 91 1009.9
20260905085459 61 219 0.0 0.0 0.00 0.29 0.00 91 1010.0
20260905084958 61 207 0.0 0.0 0.00 0.29 0.00 91 1010.1
20260905084459 61 207 0.0 0.0 0.00 0.29 0.00 91 1010.0
20260905083958 61 207 0.0 2.0 0.00 0.29 0.00 91 1010.0
20260905083458 62 207 0.0 2.0 0.00 0.29 0.00 91 1010.0
20260905082958 62 207 0.0 2.0 0.00 0.29 0.00 90 1010.1
20260905081959 62 186 0.0 3.0 0.00 0.29 0.00 89 1010.1
20260905081458 62 242 1.0 2.0 0.00 0.29 0.00 89 1010.1
20260905080959 62 242 1.0 3.0 0.00 0.29 0.00 89 1010.0
20260905080459 62 278 0.0 3.0 0.00 0.29 0.00 88 1010.0
20260905075958 62 78 0.0 5.0 0.00 0.29 0.00 88 1010.0
20260905075457 62 69 2.0 5.0 0.00 0.29 0.00 87 1010.0
20260905073458 63 80 0.0 2.0 0.00 0.29 0.00 88 1009.9
20260905072957 63 80 1.0 4.0 0.00 0.29 0.00 87 1009.9
20260905072458 63 80 3.0 5.0 0.00 0.29 0.00 87 1009.9
20260905071957 63 286 0.0 6.0 0.00 0.29 0.00 88 1009.8
20260905071457 62 123 2.0 6.0 0.00 0.29 0.00 88 1009.9
20260905070458 62 61 1.0 6.0 0.00 0.29 0.00 89 1009.9
20260905065958 62 46 5.0 6.0 0.00 0.29 0.00 90 1009.9
20260905065457 62 282 0.0 3.0 0.00 0.29 0.00 90 1010.0
20260905064957 62 282 1.0 3.0 0.00 0.29 0.00 90 1010.0
20260905064457 62 275 0.0 2.0 0.00 0.29 0.00 90 1010.1
20260905063958 62 275 0.0 1.0 0.00 0.29 0.00 89 1010.2
20260905063458 62 275 0.0 1.0 0.00 0.29 0.00 90 1010.3
20260905062957 62 275 0.0 1.0 0.00 0.29 0.00 90 1010.2
20260905061957 62 275 1.0 2.0 0.00 0.29 0.00 90 1010.4
20260905061457 62 275 1.0 2.0 0.00 0.29 0.00 90 1010.4
20260905060958 62 275 1.0 2.0 0.00 0.29 0.00 90 1010.4
20260905060458 63 275 1.0 3.0 0.00 0.29 0.00 90 1010.5